DW2659 Weather Reports


time (UTC)temp
C
wind
direction
speed
KPH
gust
KPH
rain 1hr
cm
rain 24hr
cm
rain mn
cm
humidity
%
barometer
mb
20260902024905 23 355 0.0 1.6 0.00 0.00 0.00 83 1018.2
20260902024402 24 355 1.6 1.6 0.00 0.00 0.00 82 1018.2
20260902023903 24 355 0.0 0.0 0.00 0.00 0.00 82 1018.2
20260902023404 24 355 0.0 0.0 0.00 0.00 0.00 82 1018.0
20260902022903 24 355 0.0 1.6 0.00 0.00 0.00 82 1018.0
20260902022402 24 355 0.0 1.6 0.00 0.00 0.00 81 1018.0
20260902021904 24 355 0.0 1.6 0.00 0.00 0.00 81 1018.0
20260902020903 24 355 1.6 1.6 0.00 0.00 0.00 81 1018.0
20260902020404 25 355 0.0 1.6 0.00 0.00 0.00 80 1018.0
20260902015903 25 355 0.0 0.0 0.00 0.00 0.00 80 1018.1
20260902015403 25 355 0.0 0.0 0.00 0.00 0.00 79 1018.1
20260902014904 25 355 0.0 0.0 0.00 0.00 0.00 79 1018.1
20260902014403 25 355 0.0 1.6 0.00 0.00 0.00 78 1018.0
20260902013903 25 355 0.0 0.0 0.00 0.00 0.00 77 1018.0
20260902013404 25 355 0.0 0.0 0.00 0.00 0.00 76 1018.0
20260902012403 25 355 0.0 0.0 0.00 0.00 0.00 75 1017.7
20260902011904 26 355 0.0 0.0 0.00 0.00 0.00 74 1017.7
20260902011402 26 355 0.0 0.0 0.00 0.00 0.00 73 1017.4
20260902010903 26 355 0.0 0.0 0.00 0.00 0.00 73 1017.4
20260902010404 26 355 0.0 0.0 0.00 0.00 0.00 73 1017.4
20260902005903 26 355 0.0 1.6 0.00 0.00 0.00 73 1017.4
20260902004905 26 355 0.0 0.0 0.00 0.00 0.00 71 1017.4
20260902004403 26 355 0.0 1.6 0.00 0.00 0.00 70 1017.3
20260902003903 26 355 1.6 1.6 0.00 0.00 0.00 70 1017.3
20260902003403 27 355 0.0 0.0 0.00 0.00 0.00 69 1017.3
20260902002903 27 355 0.0 0.0 0.00 0.00 0.00 69 1017.3
20260902002403 27 355 0.0 1.6 0.00 0.00 0.00 69 1017.3
20260902001905 27 355 0.0 1.6 0.00 0.00 0.00 68 1017.3
20260902001403 27 355 0.0 0.0 0.00 0.00 0.00 67 1017.2
20260902000406 28 355 1.6 1.6 0.00 0.00 0.00 66 1017.2
20260901235904 28 355 0.0 1.6 0.00 0.00 0.00 66 1017.4
20260901235403 28 355 0.0 0.0 0.00 0.00 0.00 64 1017.4
20260901234905 28 355 0.0 0.0 0.00 0.00 0.00 64 1017.4
20260901232903 30 355 0.0 0.0 0.00 0.00 0.00 61 1017.6
20260901232403 30 355 0.0 0.0 0.00 0.00 0.00 61 1017.6
20260901231403 30 355 0.0 0.0 0.00 0.00 0.00 61 1017.5
20260901230903 30 355 0.0 0.0 0.00 0.00 0.00 61 1017.5
20260901225903 31 355 0.0 0.0 0.00 0.00 0.00 60 1017.5
20260901225403 31 355 0.0 0.0 0.00 0.00 0.00 61 1017.5
20260901224904 31 355 0.0 1.6 0.00 0.00 0.00 60 1017.5
20260901224403 31 355 0.0 1.6 0.00 0.00 0.00 59 1017.4
20260901223404 32 355 0.0 1.6 0.00 0.00 0.00 57 1017.4
20260901221903 34 355 0.0 0.0 0.00 0.00 0.00 52 1017.4
20260901221404 35 355 0.0 0.0 0.00 0.00 0.00 53 1017.4
20260901220903 35 355 0.0 1.6 0.00 0.00 0.00 52 1017.4
20260901220403 35 355 0.0 0.0 0.00 0.00 0.00 52 1017.4
20260901215905 35 355 0.0 0.0 0.00 0.00 0.00 51 1017.4
20260901215403 35 355 0.0 0.0 0.00 0.00 0.00 50 1017.4
20260901214903 36 355 0.0 0.0 0.00 0.00 0.00 50 1017.4
20260901214404 35 355 0.0 0.0 0.00 0.00 0.00 50 1017.5
20260901213403 35 355 0.0 0.0 0.00 0.00 0.00 50 1017.5
20260901212903 36 355 0.0 1.6 0.00 0.00 0.00 50 1017.5
20260901212404 36 355 0.0 1.6 0.00 0.00 0.00 50 1017.5
20260901211903 36 355 0.0 3.2 0.00 0.00 0.00 48 1017.5
20260901210403 36 355 0.0 1.6 0.00 0.00 0.00 47 1017.5
20260901205903 36 355 0.0 1.6 0.00 0.00 0.00 48 1017.5
20260901205404 36 355 0.0 4.8 0.00 0.00 0.00 49 1017.7
20260901204403 36 328 1.6 3.2 0.00 0.00 0.00 47 1017.7
20260901203904 36 15 0.0 3.2 0.00 0.00 0.00 50 1017.7
20260901203403 36 15 0.0 3.2 0.00 0.00 0.00 50 1017.7
20260901202404 36 15 0.0 1.6 0.00 0.00 0.00 48 1017.9
20260901201904 36 15 0.0 1.6 0.00 0.00 0.00 50 1017.9
20260901201403 35 15 3.2 4.8 0.00 0.00 0.00 49 1018.0
20260901200903 35 9 1.6 4.8 0.00 0.00 0.00 46 1018.0
20260901195904 35 175 1.6 4.8 0.00 0.00 0.00 46 1018.1
20260901195403 35 355 0.0 3.2 0.00 0.00 0.00 49 1018.1
20260901194903 35 355 1.6 3.2 0.00 0.00 0.00 50 1018.1
20260901194405 35 355 0.0 3.2 0.00 0.00 0.00 48 1018.3
20260901193403 35 61 1.6 3.2 0.00 0.00 0.00 48 1018.4
20260901192904 35 42 1.6 4.8 0.00 0.00 0.00 47 1018.5
20260901192403 35 10 0.0 1.6 0.00 0.00 0.00 47 1018.5
20260901191904 35 13 1.6 4.8 0.00 0.00 0.00 48 1018.5
20260901190903 35 33 3.2 8.0 0.00 0.00 0.00 46 1018.7
20260901190403 35 43 1.6 4.8 0.00 0.00 0.00 45 1018.7
20260901185905 35 267 0.0 3.2 0.00 0.00 0.00 47 1018.9
20260901184904 35 355 1.6 4.8 0.00 0.00 0.00 44 1018.9
20260901184405 35 185 0.0 3.2 0.00 0.00 0.00 46 1019.0
20260901183903 34 32 3.2 4.8 0.00 0.00 0.00 48 1019.0
20260901183404 34 38 3.2 4.8 0.00 0.00 0.00 51 1018.9
20260901182404 34 57 1.6 4.8 0.00 0.10 0.00 51 1019.0
20260901181404 33 18 1.6 3.2 0.00 0.10 0.00 51 1019.2
20260901180904 33 74 3.2 8.0 0.00 0.10 0.00 53 1019.2
20260901180403 33 100 1.6 4.8 0.00 0.10 0.00 50 1019.2
20260901175405 34 248 4.8 8.0 0.00 0.10 0.00 48 1019.2
20260901174903 33 17 1.6 4.8 0.00 0.10 0.00 48 1019.2
20260901174404 33 73 1.6 4.8 0.00 0.10 0.00 49 1019.6
20260901173904 33 233 1.6 4.8 0.00 0.10 0.00 48 1019.6
20260901173403 34 327 1.6 4.8 0.00 0.10 0.00 49 1019.6
20260901172903 33 302 0.0 3.2 0.00 0.10 0.00 51 1019.7
20260901171904 33 225 3.2 4.8 0.00 0.10 0.00 52 1019.7
20260901171403 33 236 3.2 8.0 0.00 0.10 0.00 50 1020.0
20260901170904 33 34 0.0 3.2 0.00 0.10 0.00 54 1020.0
20260901170404 33 34 1.6 4.8 0.00 0.10 0.00 52 1020.0
20260901165404 32 82 3.2 4.8 0.00 0.10 0.00 55 1020.0
20260901164905 32 45 3.2 4.8 0.00 0.10 0.00 53 1020.1
20260901164404 32 66 0.0 4.8 0.00 0.10 0.00 55 1020.3
20260901163903 32 53 4.8 4.8 0.00 0.10 0.00 55 1020.3
20260901163405 32 20 1.6 3.2 0.00 0.10 0.00 58 1020.3
20260901162903 32 113 1.6 4.8 0.00 0.10 0.00 55 1021.0
20260901162403 32 92 1.6 3.2 0.00 0.10 0.00 57 1021.0
20260901161905 32 132 3.2 4.8 0.00 0.10 0.00 54 1021.0
20260901161404 32 109 3.2 8.0 0.00 0.10 0.00 56 1021.0
20260901160903 32 56 1.6 4.8 0.00 0.10 0.00 57 1021.0
20260901155903 32 44 1.6 4.8 0.00 0.10 0.00 58 1021.0
20260901154905 32 100 1.6 4.8 0.00 0.10 0.00 59 1021.0
20260901153904 32 240 0.0 3.2 0.00 0.10 0.00 57 1021.0
20260901152904 31 95 3.2 4.8 0.00 0.10 0.00 60 1020.9
20260901152404 31 68 1.6 3.2 0.00 0.10 0.00 60 1020.9
20260901151903 31 152 1.6 3.2 0.00 0.10 0.00 59 1020.9
20260901151404 31 159 1.6 4.8 0.00 0.10 0.00 58 1020.9
20260901150904 31 77 1.6 4.8 0.00 0.10 0.00 59 1020.9
20260901150403 31 185 0.0 0.0 0.00 0.10 0.00 59 1020.9
20260901145905 30 179 0.0 0.0 0.00 0.10 0.00 59 1020.9
20260901144405 30 160 0.0 0.0 0.00 0.10 0.00 63 1020.9
20260901143904 29 96 0.0 0.0 0.00 0.10 0.00 64 1020.9
20260901143403 29 96 0.0 0.0 0.00 0.10 0.00 65 1020.9
20260901142905 29 103 0.0 0.0 0.00 0.10 0.00 68 1020.9
20260901141904 28 135 0.0 0.0 0.00 0.10 0.00 70 1020.9
20260901141405 28 94 0.0 0.0 0.00 0.10 0.00 72 1020.9
20260901140403 28 94 0.0 0.0 0.00 0.10 0.00 72 1020.9
20260901135905 27 232 0.0 0.0 0.00 0.10 0.00 74 1020.9
20260901135404 27 232 0.0 0.0 0.00 0.10 0.00 73 1020.9
20260901134904 27 232 0.0 0.0 0.00 0.10 0.00 75 1020.9
20260901134405 27 232 0.0 0.0 0.00 0.10 0.00 78 1020.9
20260901133904 26 232 0.0 0.0 0.00 0.10 0.00 79 1020.9
20260901133404 26 232 0.0 0.0 0.00 0.10 0.00 80 1020.9
20260901132905 25 232 0.0 0.0 0.00 0.10 0.00 81 1020.9
20260901132403 25 232 0.0 0.0 0.00 0.10 0.00 83 1020.9
20260901131904 24 232 0.0 0.0 0.00 0.10 0.00 84 1020.9
20260901131405 23 232 0.0 0.0 0.00 0.10 0.00 87 1020.8
20260901130404 22 232 0.0 0.0 0.00 0.10 0.00 92 1020.8
20260901125905 22 232 0.0 0.0 0.00 0.10 0.00 93 1020.7
20260901125404 22 232 0.0 0.0 0.00 0.10 0.00 93 1020.7
20260901124904 22 232 0.0 0.0 0.00 0.10 0.00 94 1020.7
20260901124403 21 232 0.0 0.0 0.00 0.10 0.00 94 1020.7
20260901123905 21 232 0.0 0.0 0.00 0.10 0.00 94 1020.5
20260901122904 21 232 0.0 0.0 0.00 0.10 0.00 94 1020.5
20260901122405 21 232 0.0 0.0 0.00 0.10 0.00 94 1020.5
20260901121903 21 232 0.0 0.0 0.00 0.10 0.00 94 1020.5
20260901121403 20 232 0.0 0.0 0.00 0.10 0.00 94 1020.3
20260901120905 20 232 0.0 0.0 0.00 0.10 0.00 94 1020.3
20260901120403 20 232 0.0 0.0 0.00 0.10 0.00 93 1020.3
20260901115904 20 232 0.0 0.0 0.00 0.10 0.00 93 1020.3
20260901115405 20 232 0.0 0.0 0.00 0.10 0.00 93 1020.3
20260901114904 20 232 0.0 0.0 0.00 0.10 0.00 93 1020.3
20260901113906 20 232 0.0 0.0 0.00 0.10 0.00 93 1020.0
20260901112405 20 232 0.0 0.0 0.00 0.10 0.00 93 1019.8
20260901111904 20 232 0.0 0.0 0.00 0.10 0.00 93 1019.8
20260901111404 20 232 0.0 0.0 0.00 0.10 0.00 93 1019.6
20260901110905 20 232 0.0 0.0 0.00 0.10 0.00 93 1019.6
20260901105405 20 232 0.0 0.0 0.00 0.10 0.00 93 1019.5
20260901104904 20 232 0.0 0.0 0.00 0.10 0.00 93 1019.5
20260901104404 20 232 0.0 0.0 0.00 0.10 0.00 93 1019.5
20260901103904 20 232 0.0 0.0 0.00 0.10 0.00 93 1019.5
20260901103405 20 232 0.0 0.0 0.00 0.10 0.00 93 1019.5
20260901102904 20 232 0.0 0.0 0.00 0.10 0.00 93 1019.5
20260901102403 20 232 0.0 0.0 0.00 0.10 0.00 93 1019.5
20260901101906 20 232 0.0 0.0 0.00 0.10 0.00 93 1019.4
20260901100903 20 232 0.0 0.0 0.00 0.10 0.00 93 1019.4
20260901100403 20 232 0.0 0.0 0.00 0.10 0.00 93 1019.4
20260901095903 20 232 0.0 0.0 0.00 0.10 0.00 93 1019.4
20260901094903 20 232 0.0 0.0 0.00 0.10 0.00 93 1019.4
20260901094403 20 232 0.0 0.0 0.00 0.10 0.00 93 1018.8
20260901093902 20 232 0.0 0.0 0.00 0.10 0.00 92 1018.8
20260901093402 20 232 0.0 0.0 0.00 0.10 0.00 92 1018.8
20260901092904 21 232 0.0 0.0 0.00 0.10 0.00 92 1018.8
20260901092402 21 232 0.0 0.0 0.00 0.10 0.00 92 1018.8
20260901091902 21 232 0.0 0.0 0.00 0.10 0.00 92 1018.8
20260901091404 21 232 0.0 0.0 0.00 0.10 0.00 92 1018.8
20260901090902 21 232 0.0 0.0 0.00 0.10 0.00 92 1018.8
20260901090403 21 232 0.0 0.0 0.00 0.10 0.00 92 1018.8
20260901085403 21 232 0.0 0.0 0.00 0.10 0.00 92 1018.8
20260901084404 21 232 0.0 0.0 0.00 0.10 0.00 92 1018.6
20260901083902 21 232 0.0 0.0 0.00 0.10 0.00 92 1018.6
20260901083402 21 232 0.0 0.0 0.00 0.10 0.00 92 1018.6
20260901082402 21 232 0.0 0.0 0.00 0.10 0.00 92 1018.6
20260901081902 21 232 0.0 0.0 0.00 0.10 0.00 92 1018.6
20260901080903 21 232 0.0 0.0 0.00 0.10 0.00 91 1018.7
20260901080402 21 232 0.0 0.0 0.00 0.10 0.00 92 1018.7
20260901075904 21 232 0.0 0.0 0.00 0.10 0.00 91 1018.7
20260901075402 21 232 0.0 0.0 0.00 0.10 0.00 91 1018.7
20260901073902 21 232 0.0 0.0 0.00 0.10 0.00 91 1018.7
20260901073402 21 232 0.0 0.0 0.00 0.10 0.00 91 1018.6
20260901072904 21 232 0.0 0.0 0.00 0.10 0.00 91 1018.7
20260901072402 21 232 0.0 0.0 0.00 0.10 0.00 91 1018.7
20260901071903 21 232 0.0 0.0 0.00 0.10 0.00 91 1018.7
20260901071404 21 232 0.0 0.0 0.00 0.10 0.00 91 1019.0
20260901070903 21 232 0.0 0.0 0.00 0.10 0.00 91 1019.0
20260901070402 21 232 0.0 0.0 0.00 0.10 0.00 91 1019.0
20260901065903 21 232 0.0 0.0 0.00 0.10 0.00 91 1019.0
20260901065403 21 232 0.0 0.0 0.00 0.10 0.00 91 1019.0
20260901064904 21 232 0.0 0.0 0.00 0.10 0.00 91 1019.0
20260901064403 21 232 0.0 0.0 0.00 0.10 0.00 91 1019.1
20260901063903 21 232 0.0 0.0 0.00 0.10 0.00 90 1019.1
20260901063402 21 232 0.0 0.0 0.00 0.10 0.00 90 1019.0
20260901061902 21 232 0.0 0.0 0.00 0.10 0.00 90 1019.2
20260901061404 21 232 0.0 0.0 0.00 0.10 0.00 90 1019.2
20260901060902 21 232 0.0 0.0 0.00 0.10 0.00 90 1019.2
20260901060402 21 232 0.0 0.0 0.00 0.10 0.00 90 1019.2
20260901055904 21 232 0.0 0.0 0.00 0.10 0.00 90 1019.2
20260901055403 21 232 0.0 0.0 0.00 0.10 0.00 90 1019.2
20260901054903 21 232 0.0 0.0 0.00 0.10 0.00 90 1019.2
20260901054403 21 232 0.0 0.0 0.00 0.10 0.00 89 1019.2
20260901052904 22 232 0.0 0.0 0.00 0.10 0.00 89 1019.2
20260901052403 22 232 0.0 0.0 0.00 0.10 0.00 89 1019.3
20260901051903 22 232 0.0 0.0 0.00 0.10 0.00 89 1019.3
20260901051404 22 232 0.0 0.0 0.00 0.10 0.00 89 1019.2
20260901045904 22 232 0.0 0.0 0.00 0.10 0.00 88 1019.1
20260901045402 22 232 0.0 0.0 0.00 0.10 0.00 88 1019.1
20260901044404 22 232 0.0 0.0 0.00 0.10 0.00 87 1019.0
20260901043903 22 232 0.0 0.0 0.00 0.10 0.00 87 1019.0
20260901043402 22 232 0.0 0.0 0.00 0.10 0.00 87 1019.0
20260901042403 22 232 0.0 0.0 0.00 0.10 0.00 87 1019.0
20260901041902 22 232 0.0 0.0 0.00 0.10 0.00 86 1019.0
20260901041404 22 232 0.0 0.0 0.00 0.10 0.00 86 1019.0
20260901040903 22 232 0.0 0.0 0.00 0.10 0.00 86 1019.0
20260901040402 22 232 0.0 0.0 0.00 0.10 0.00 86 1019.0
20260901035904 22 232 0.0 0.0 0.00 0.10 0.10 86 1018.8
20260901035402 22 232 0.0 0.0 0.00 0.10 0.10 85 1018.8
20260901034903 22 232 0.0 0.0 0.00 0.10 0.10 85 1018.8
20260901034404 22 232 0.0 0.0 0.00 0.10 0.10 86 1018.8
20260901033902 22 232 0.0 0.0 0.00 0.10 0.10 85 1018.9
20260901033403 22 232 0.0 0.0 0.00 0.10 0.10 85 1018.9
20260901032904 22 232 0.0 0.0 0.00 0.10 0.10 85 1019.0
20260901032402 22 232 0.0 0.0 0.00 0.10 0.10 84 1019.0
20260901031902 22 232 0.0 0.0 0.00 0.10 0.10 84 1019.0
20260901031403 23 232 0.0 0.0 0.00 0.10 0.10 84 1019.1
20260901030903 23 232 0.0 0.0 0.00 0.10 0.10 84 1019.1
20260901025904 23 232 0.0 0.0 0.00 0.10 0.10 84 1019.2